STARLINK-33880, 63686

Orbit data source: Space-Track

STARLINK-33880, 63686 is a payload satellite owned by SpaceX/Seattle (US) in LEO that was launched on Mon, 28 Apr 2025 UTC via an FALCON 9 launch vehicle from the Air Force Eastern Test Range (AFETR). Payload-class satellites include a variety of spacecraft equipped with specific instruments for various scientific and technological missions. These include communications satellites like Starlink; space stations such as the ISS; scientific satellites like the Hubble; Earth observation satellites from companies like Planet Labs, Umbra, and HawkEye 360; GPS; miniature CubeSats for education and research; and military/defense satellites.

Loading next visibility...
Identifier
63686, 2025-085Y
Orbit
LEO
Country
Flag of USUS
Related business
Manufacturer
SpaceX/Seattle
Mission
Operational Commercial Communications
Bus & Motor
STARLINK V2MO, Unknown motor
Mass
575 kg wet, ~530 kg dry
Launch date (UTC)
2025-04-28 (1 year ago)
Launch vehicle
FALCON 9
Launch site
Air Force Eastern Test Range (AFETR)
Object type
Payload
Rocket body
Debris
Shape & HBR
Box + 2 Pan, 17.7 m
Radar Cross Section
36.964 m², Large (>1 m²)

Expand to show TLE details & history
Last TLE update: 20 hours ago

TLE from 20 hours ago
0 STARLINK-33880
1 63686U 25085Y   26171.05868770  .00010854  00000-0  40325-3 0  9992
2 63686  43.0005 172.9874 0001200 278.0884  81.9832 15.27589309 64630
Epoch: 2026-06-20T01:24Z
TLE epoch observation values (Epoch: 2026-06-20T01:24:30.617Z)
Latitude
0.00003°
Longitude
-116.4189°
Altitude
482.682 km
Speed
7.626 km/s
True Right ascension
11h 31m 56s
True Declination
0° 00' 00"
Sunlit
Object was in daylight at epoch
Visualization orbit readout
Latitude
Unknown
Longitude
Unknown
Altitude
Unknown
Speed
Unknown
Apparent Right ascension
Unknown
Apparent Declination
Unknown
Sunlit
N/A
Visualization observer readout
Local Sidereal Time
08:33:35
Azimuth
Unknown
Elevation
Unknown
Doppler factor
Unknown
Orbital elements
Apogee altitude
485.79 km
Perigee altitude
484.143 km
Semi-major axis
6,863.103 km
Eccentricity
0.00012
Inclination
43.0005°
RAAN
172.9874°
Arg. of periapsis
278.0884°
True anomaly
81.99682°
Mean anomaly
81.9832°
Eccentric anomaly
81.99001°
Mean motion
3.81735 °/min
Orbital period
94.31 mins
BSTAR
0.00040325
Loading maneuver chart data...
Computing Atmospheric mass density...
Loading historical data...
Loading historical data...
Loading historical data...
Loading historical data...
Loading historical data...
Loading historical data...
Loading historical data...

Documentation

Showing up to 5 results
|